Weather History for Monterey, CA

Change the Weather History Date:

Thursday, July 18, 2013

  Actual Average Record
Temperature  
Mean Temperature 58 °F 60 °F  
Max Temperature 63 °F 67 °F 77 °F (2004)
Min Temperature 53 °F 54 °F 50 °F (2011)
Degree Days  
Heating Degree Days 7    
Month to date heating degree days 69  
Since 1 June heating degree days 197  
Since 1 July heating degree days 69  
Cooling Degree Days 0    
Month to date cooling degree days 5  
Year to date cooling degree days 21  
Since 1 June cooling degree days 14  
Growing Degree Days 8 (Base 50)    
Moisture  
Dew Point 53 °F    
Average Humidity 86    
Maximum Humidity 100    
Minimum Humidity 72    
Precipitation  
Precipitation 0.00 in - 0.00 in (2014)
Month to date precipitation 0.00  
Year to date precipitation 3.15  
Since 1 July precipitation 0.00  
Sea Level Pressure  
Sea Level Pressure 30.07 in    
Wind  
Wind Speed 6 mph (West)    
Max Wind Speed 13 mph    
Max Gust Speed 16 mph    
Visibility 6 miles    
Events Fog    
T = Trace of Precipitation, MM = Missing Value Source: NWS Daily Summary

Daily Weather History Graph

Daily Weather History Graph

Search for Another Location

Airport:

Trip Planner

Search our weather history database for the weather conditions in past years. The results will help you decide how hot, cold, wet, or windy it might be!

Date:

Astronomy

Jul. 18, 2013 Rise Set
Actual Time 6:03 AM PDT 8:23 PM PDT
Civil Twilight 5:33 AM PDT 8:53 PM PDT
Nautical Twilight 4:57 AM PDT 9:29 PM PDT
Astronomical Twilight 4:17 AM PDT 10:09 PM PDT
Moon 4:27 PM PDT 1:56 AM PDT
Length of Visible Light 15h 19m
Length of Day
14h 20m
Waxing Gibbous, 78% of the Moon is Illuminated
Jul 18
Waxing Gibbous
Jul 22
Full
Jul 29
Last Quarter
Aug 6
New
Aug 14
First Quarter

Hourly Weather History & Observations

Time (PDT) Temp. Dew Point Humidity Pressure Visibility Wind Dir Wind Speed Gust Speed Precip Events Conditions
12:54 AM 55.9 °F 53.1 °F 90% 30.12 in 10.0 mi South 4.6 mph - N/A   Overcast
1:54 AM 55.9 °F 52.0 °F 87% 30.11 in 10.0 mi West 4.6 mph - N/A   Overcast
2:49 AM 55.4 °F 53.6 °F 94% 30.06 in 2.0 mi Calm Calm - N/A   Overcast
2:54 AM 55.0 °F 54.0 °F 96% 30.10 in 4.0 mi Calm Calm - N/A   Overcast
3:16 AM 55.4 °F 53.6 °F 94% 30.06 in 1.8 mi West 6.9 mph - N/A   Overcast
3:25 AM 55.4 °F 53.6 °F 94% 30.05 in 0.5 mi WSW 5.8 mph - N/A Fog Fog
3:37 AM 55.4 °F 53.6 °F 94% 30.05 in 0.8 mi WSW 5.8 mph - N/A   Mist
3:44 AM 55.4 °F 53.6 °F 94% 30.06 in 0.5 mi SW 5.8 mph - N/A Fog Fog
3:54 AM 55.0 °F 54.0 °F 96% 30.09 in 0.8 mi WSW 5.8 mph - N/A   Mist
4:54 AM 55.0 °F 54.0 °F 96% 30.10 in 0.8 mi West 4.6 mph - N/A   Mist
5:38 AM 53.6 °F 53.6 °F 100% 30.06 in 1.2 mi West 3.5 mph - N/A   Overcast
5:54 AM 54.0 °F 54.0 °F 100% 30.10 in 1.5 mi WSW 5.8 mph - N/A Fog Fog
6:06 AM 53.6 °F 53.6 °F 100% 30.07 in 0.5 mi West 3.5 mph - N/A Fog Fog
6:19 AM 53.6 °F 53.6 °F 100% 30.07 in 0.5 mi WSW 3.5 mph - N/A Fog Fog
6:54 AM 54.0 °F 52.0 °F 93% 30.11 in 0.5 mi Calm Calm - N/A Fog Fog
7:01 AM 53.6 °F 53.6 °F 100% 30.07 in 5.0 mi Calm Calm - N/A   Overcast
7:08 AM 53.6 °F 53.6 °F 100% 30.07 in 0.8 mi Calm Calm - N/A   Overcast
7:54 AM 54.0 °F 52.0 °F 93% 30.12 in 0.8 mi Calm Calm - N/A   Overcast
8:20 AM 53.6 °F 51.8 °F 94% 30.08 in 2.0 mi WSW 3.5 mph - N/A   Overcast
8:54 AM 55.0 °F 52.0 °F 89% 30.12 in 2.0 mi West 3.5 mph - N/A   Overcast
9:11 AM 55.4 °F 51.8 °F 88% 30.08 in 3.0 mi Calm Calm - N/A   Overcast
9:37 AM 55.4 °F 53.6 °F 94% 30.08 in 3.0 mi Calm Calm - N/A   Overcast
9:54 AM 57.9 °F 52.0 °F 81% 30.12 in 3.0 mi NW 3.5 mph - N/A   Haze
10:12 AM 59.0 °F 53.6 °F 82% 30.07 in 10.0 mi Calm Calm - N/A   Scattered Clouds
10:54 AM 60.1 °F 53.1 °F 78% 30.11 in 10.0 mi NW 8.1 mph - N/A   Clear
11:16 AM 60.8 °F 53.6 °F 77% 30.07 in 10.0 mi WNW 6.9 mph - N/A   Partly Cloudy
11:54 AM 60.1 °F 53.1 °F 78% 30.11 in 10.0 mi West 8.1 mph - N/A   Scattered Clouds
12:01 PM 59.0 °F 53.6 °F 82% 30.07 in 10.0 mi NW 8.1 mph - N/A   Overcast
12:54 PM 60.1 °F 53.1 °F 78% 30.10 in 10.0 mi West 8.1 mph - N/A   Scattered Clouds
1:54 PM 62.1 °F 53.1 °F 72% 30.10 in 10.0 mi West 9.2 mph - N/A   Scattered Clouds
2:54 PM 62.1 °F 53.1 °F 72% 30.08 in 10.0 mi WNW 10.4 mph - N/A   Clear
3:25 PM 62.6 °F 53.6 °F 72% 30.04 in 10.0 mi West 8.1 mph - N/A   Partly Cloudy
3:54 PM 62.1 °F 53.1 °F 72% 30.07 in 10.0 mi WNW 10.4 mph - N/A   Partly Cloudy
4:54 PM 62.1 °F 54.0 °F 75% 30.06 in 10.0 mi West 10.4 mph - N/A   Clear
5:32 PM 60.8 °F 53.6 °F 77% 30.02 in 10.0 mi West 10.4 mph - N/A   Partly Cloudy
5:50 PM 59.0 °F 53.6 °F 82% 30.02 in 10.0 mi West 9.2 mph - N/A   Mostly Cloudy
5:54 PM 59.0 °F 53.1 °F 81% 30.05 in 10.0 mi West 9.2 mph - N/A   Mostly Cloudy
6:54 PM 57.0 °F 53.1 °F 87% 30.05 in 6.0 mi SW 9.2 mph - N/A   Overcast
7:12 PM 57.2 °F 53.6 °F 88% 30.01 in 8.0 mi West 9.2 mph - N/A   Overcast
7:54 PM 55.9 °F 53.1 °F 90% 30.05 in 3.0 mi SW 6.9 mph - N/A   Overcast
8:54 PM 55.0 °F 52.0 °F 89% 30.05 in 6.0 mi SSW 6.9 mph - N/A   Overcast
9:54 PM 54.0 °F 52.0 °F 93% 30.06 in 6.0 mi SW 4.6 mph - N/A   Overcast
10:54 PM 54.0 °F 52.0 °F 93% 30.05 in 7.0 mi SW 6.9 mph - N/A   Overcast
11:54 PM 55.0 °F 52.0 °F 89% 30.04 in 10.0 mi West 4.6 mph - N/A   Overcast